| time (UTC) | temp C | wind direction | speed KPH | gust KPH | rain 1hr cm | rain 24hr cm | rain mn cm | humidity % | barometer mb |
| 20260502180514 | 19 | 360 | 25.7 | 0.0 | 0.00 | 0.00 | 0.00 | 33 | 1013.8 |
| 20260502170509 | 17 | 360 | 27.4 | 0.0 | 0.00 | 0.00 | 0.00 | 35 | 1013.7 |
| 20260502164007 | 17 | 360 | 25.7 | 0.0 | 0.00 | 0.00 | 0.00 | 37 | 1013.7 |
| 20260502163507 | 18 | 360 | 24.1 | 0.0 | 0.00 | 0.00 | 0.00 | 37 | 1013.6 |
| 20260502163016 | 18 | 360 | 20.9 | 0.0 | 0.00 | 0.00 | 0.00 | 36 | 1013.6 |
| 20260502162510 | 18 | 360 | 19.3 | 0.0 | 0.00 | 0.00 | 0.00 | 38 | 1013.8 |
| 20260502162007 | 17 | 360 | 19.3 | 0.0 | 0.00 | 0.00 | 0.00 | 38 | 1013.7 |
| 20260502161506 | 17 | 360 | 20.9 | 0.0 | 0.00 | 0.00 | 0.00 | 39 | 1013.6 |
| 20260502161006 | 17 | 360 | 19.3 | 0.0 | 0.00 | 0.00 | 0.00 | 39 | 1013.5 |
| 20260502160506 | 17 | 360 | 19.3 | 0.0 | 0.00 | 0.00 | 0.00 | 39 | 1013.5 |
| 20260502152001 | 16 | 360 | 19.3 | 0.0 | 0.00 | 0.00 | 0.00 | 43 | 1013.4 |
| 20260502151631 | 16 | 360 | 19.3 | 0.0 | 0.00 | 0.00 | 0.00 | 44 | 1013.4 |
| 20260502151059 | 16 | 360 | 17.7 | 0.0 | 0.00 | 0.00 | 0.00 | 44 | 1013.4 |
| 20260502150559 | 16 | 360 | 19.3 | 0.0 | 0.00 | 0.00 | 0.00 | 44 | 1013.3 |
| 20260502150111 | 16 | 360 | 19.3 | 0.0 | 0.00 | 0.00 | 0.00 | 43 | 1013.3 |
| 20260502130543 | 8 | 360 | 3.2 | 0.0 | 0.00 | 0.00 | 0.00 | 63 | 1013.5 |
| 20260502123544 | 5 | 360 | 1.6 | 0.0 | 0.00 | 0.00 | 0.00 | 69 | 1013.2 |
| 20260502123048 | 3 | 360 | 1.6 | 0.0 | 0.00 | 0.00 | 0.00 | 68 | 1013.2 |
| 20260502122539 | 3 | 360 | 1.6 | 0.0 | 0.00 | 0.00 | 0.00 | 67 | 1013.3 |
| 20260502121539 | 2 | 360 | 0.0 | 0.0 | 0.00 | 0.00 | 0.00 | 65 | 1013.2 |
| 20260502121039 | 2 | 360 | 0.0 | 0.0 | 0.00 | 0.00 | 0.00 | 65 | 1013.2 |
| 20260502120539 | 2 | 360 | 1.6 | 0.0 | 0.00 | 0.00 | 0.00 | 65 | 1013.2 |
| 20260502115539 | 2 | 360 | 0.0 | 0.0 | 0.00 | 0.00 | 0.00 | 66 | 1013.2 |
| 20260502115038 | 2 | 360 | 0.0 | 0.0 | 0.00 | 0.00 | 0.00 | 66 | 1013.2 |
| 20260502114538 | 2 | 360 | 1.6 | 0.0 | 0.00 | 0.00 | 0.00 | 66 | 1013.2 |
| 20260502114038 | 2 | 360 | 1.6 | 0.0 | 0.00 | 0.00 | 0.00 | 65 | 1013.2 |
| 20260502113536 | 2 | 360 | 1.6 | 0.0 | 0.00 | 0.00 | 0.00 | 63 | 1013.3 |
| 20260502113034 | 3 | 360 | 1.6 | 0.0 | 0.00 | 0.00 | 0.00 | 62 | 1013.3 |
| 20260502112533 | 3 | 360 | 0.0 | 0.0 | 0.00 | 0.00 | 0.00 | 61 | 1013.3 |
| 20260502111535 | 4 | 360 | 0.0 | 0.0 | 0.00 | 0.00 | 0.00 | 60 | 1013.2 |
| 20260502111033 | 4 | 360 | 1.6 | 0.0 | 0.00 | 0.00 | 0.00 | 60 | 1013.3 |
| 20260502110532 | 4 | 360 | 3.2 | 0.0 | 0.00 | 0.00 | 0.00 | 60 | 1013.2 |
| 20260502110033 | 4 | 360 | 4.8 | 0.0 | 0.00 | 0.00 | 0.00 | 60 | 1013.2 |
| 20260502105532 | 4 | 360 | 6.4 | 0.0 | 0.00 | 0.00 | 0.00 | 60 | 1013.4 |
| 20260502105030 | 4 | 360 | 4.8 | 0.0 | 0.00 | 0.00 | 0.00 | 59 | 1013.4 |
| 20260502104532 | 4 | 360 | 1.6 | 0.0 | 0.00 | 0.00 | 0.00 | 57 | 1013.5 |
| 20260502104029 | 5 | 360 | 1.6 | 0.0 | 0.00 | 0.00 | 0.00 | 56 | 1013.3 |
| 20260502103529 | 5 | 360 | 1.6 | 0.0 | 0.00 | 0.00 | 0.00 | 54 | 1013.4 |
| 20260502103025 | 6 | 360 | 1.6 | 0.0 | 0.00 | 0.00 | 0.00 | 53 | 1013.3 |
| 20260502102529 | 6 | 360 | 1.6 | 0.0 | 0.00 | 0.00 | 0.00 | 53 | 1013.4 |
| 20260502101522 | 6 | 360 | 1.6 | 0.0 | 0.00 | 0.00 | 0.00 | 52 | 1013.7 |
| 20260502101022 | 6 | 360 | 1.6 | 0.0 | 0.00 | 0.00 | 0.00 | 53 | 1013.2 |
| 20260502100522 | 6 | 360 | 3.2 | 0.0 | 0.00 | 0.00 | 0.00 | 52 | 1013.2 |
| 20260502091512 | 8 | 360 | 3.2 | 0.0 | 0.00 | 0.00 | 0.00 | 48 | 1013.5 |
| 20260502091012 | 8 | 360 | 1.6 | 0.0 | 0.00 | 0.00 | 0.00 | 47 | 1013.6 |
| 20260502090512 | 8 | 360 | 1.6 | 0.0 | 0.00 | 0.00 | 0.00 | 47 | 1013.5 |
| 20260502071058 | 7 | 360 | 3.2 | 0.0 | 0.00 | 0.00 | 0.00 | 45 | 1015.0 |
| 20260502070558 | 7 | 360 | 3.2 | 0.0 | 0.00 | 0.00 | 0.00 | 45 | 1014.9 |
| 20260502070059 | 7 | 360 | 3.2 | 0.0 | 0.00 | 0.00 | 0.00 | 45 | 1014.8 |
| 20260502065556 | 7 | 360 | 3.2 | 0.0 | 0.00 | 0.00 | 0.00 | 44 | 1014.9 |
| 20260502065056 | 7 | 360 | 3.2 | 0.0 | 0.00 | 0.00 | 0.00 | 44 | 1015.2 |
| 20260502064606 | 7 | 360 | 3.2 | 0.0 | 0.00 | 0.00 | 0.00 | 44 | 1015.2 |
| 20260502064053 | 7 | 360 | 3.2 | 0.0 | 0.00 | 0.00 | 0.00 | 43 | 1015.2 |
| 20260502063552 | 8 | 360 | 1.6 | 0.0 | 0.00 | 0.00 | 0.00 | 42 | 1015.2 |
| 20260502063052 | 8 | 360 | 4.8 | 0.0 | 0.00 | 0.00 | 0.00 | 42 | 1015.2 |
| 20260502062555 | 8 | 360 | 4.8 | 0.0 | 0.00 | 0.00 | 0.00 | 42 | 1015.3 |
| 20260502061610 | 8 | 360 | 4.8 | 0.0 | 0.00 | 0.00 | 0.00 | 40 | 1015.3 |
| 20260502061051 | 9 | 360 | 4.8 | 0.0 | 0.00 | 0.00 | 0.00 | 41 | 1015.4 |
| 20260502060552 | 8 | 360 | 4.8 | 0.0 | 0.00 | 0.00 | 0.00 | 41 | 1015.4 |
| 20260502060050 | 8 | 360 | 4.8 | 0.0 | 0.00 | 0.00 | 0.00 | 41 | 1015.4 |
| 20260502055550 | 8 | 360 | 1.6 | 0.0 | 0.00 | 0.00 | 0.00 | 42 | 1015.5 |
| 20260502055051 | 7 | 360 | 1.6 | 0.0 | 0.00 | 0.00 | 0.00 | 44 | 1015.5 |
| 20260502054550 | 7 | 360 | 1.6 | 0.0 | 0.00 | 0.00 | 0.00 | 44 | 1015.6 |
| 20260502054051 | 7 | 360 | 3.2 | 0.0 | 0.00 | 0.00 | 0.00 | 45 | 1015.7 |
| 20260502053549 | 6 | 360 | 3.2 | 0.0 | 0.00 | 0.00 | 0.00 | 46 | 1015.6 |
| 20260502053057 | 7 | 360 | 3.2 | 0.0 | 0.00 | 0.00 | 0.00 | 45 | 1015.7 |
| 20260502052549 | 7 | 360 | 3.2 | 0.0 | 0.00 | 0.00 | 0.00 | 45 | 1015.7 |
| 20260502051549 | 7 | 360 | 6.4 | 0.0 | 0.00 | 0.00 | 0.00 | 44 | 1015.8 |
| 20260502051048 | 7 | 360 | 4.8 | 0.0 | 0.00 | 0.00 | 0.00 | 45 | 1015.8 |
| 20260502050547 | 6 | 360 | 3.2 | 0.0 | 0.00 | 0.00 | 0.00 | 46 | 1015.9 |
| 20260502050047 | 6 | 360 | 0.0 | 0.0 | 0.00 | 0.00 | 0.00 | 44 | 1016.0 |
| 20260502045551 | 7 | 360 | 0.0 | 0.0 | 0.00 | 0.00 | 0.00 | 43 | 1016.1 |
| 20260502045046 | 7 | 360 | 1.6 | 0.0 | 0.00 | 0.00 | 0.00 | 43 | 1016.1 |
| 20260502044547 | 7 | 360 | 4.8 | 0.0 | 0.00 | 0.00 | 0.00 | 43 | 1016.0 |
| 20260502044046 | 7 | 360 | 4.8 | 0.0 | 0.00 | 0.00 | 0.00 | 44 | 1016.0 |
| 20260502043547 | 7 | 360 | 4.8 | 0.0 | 0.00 | 0.00 | 0.00 | 42 | 1016.0 |
| 20260502043052 | 7 | 360 | 3.2 | 0.0 | 0.00 | 0.00 | 0.00 | 42 | 1016.1 |
| 20260502042545 | 8 | 360 | 3.2 | 0.0 | 0.00 | 0.00 | 0.00 | 40 | 1016.1 |
| 20260502041550 | 8 | 360 | 4.8 | 0.0 | 0.00 | 0.00 | 0.00 | 41 | 1016.2 |
| 20260502041047 | 8 | 360 | 4.8 | 0.0 | 0.00 | 0.00 | 0.00 | 42 | 1016.2 |
| 20260502040544 | 7 | 360 | 3.2 | 0.0 | 0.00 | 0.00 | 0.00 | 43 | 1016.2 |
| 20260502040046 | 7 | 360 | 1.6 | 0.0 | 0.00 | 0.00 | 0.00 | 43 | 1016.3 |
| 20260502035543 | 7 | 360 | 1.6 | 0.0 | 0.00 | 0.00 | 0.00 | 42 | 1016.3 |
| 20260502035043 | 7 | 360 | 0.0 | 0.0 | 0.00 | 0.00 | 0.00 | 43 | 1016.5 |
| 20260502034545 | 7 | 360 | 0.0 | 0.0 | 0.00 | 0.00 | 0.00 | 42 | 1016.6 |
| 20260502034042 | 7 | 360 | 0.0 | 0.0 | 0.00 | 0.00 | 0.00 | 42 | 1016.7 |
| 20260502033542 | 7 | 360 | 0.0 | 0.0 | 0.00 | 0.00 | 0.00 | 43 | 1016.7 |
| 20260502033041 | 7 | 360 | 0.0 | 0.0 | 0.00 | 0.00 | 0.00 | 43 | 1016.7 |
| 20260502032541 | 7 | 360 | 0.0 | 0.0 | 0.00 | 0.00 | 0.00 | 43 | 1016.8 |
| 20260502031543 | 7 | 360 | 0.0 | 0.0 | 0.00 | 0.00 | 0.00 | 41 | 1016.8 |
| 20260502031041 | 8 | 360 | 0.0 | 0.0 | 0.00 | 0.00 | 0.00 | 40 | 1016.8 |
| 20260502030540 | 8 | 360 | 1.6 | 0.0 | 0.00 | 0.00 | 0.00 | 40 | 1016.8 |
| 20260502030041 | 10 | 360 | 3.2 | 0.0 | 0.00 | 0.00 | 0.00 | 39 | 1016.8 |
| 20260502025542 | 10 | 360 | 3.2 | 0.0 | 0.00 | 0.00 | 0.00 | 39 | 1016.8 |
| 20260502025044 | 10 | 360 | 3.2 | 0.0 | 0.00 | 0.00 | 0.00 | 39 | 1016.7 |
| 20260502024541 | 10 | 360 | 3.2 | 0.0 | 0.00 | 0.00 | 0.00 | 38 | 1016.7 |
| 20260502024040 | 11 | 360 | 4.8 | 0.0 | 0.00 | 0.00 | 0.00 | 38 | 1016.7 |
| 20260502023542 | 11 | 360 | 3.2 | 0.0 | 0.00 | 0.00 | 0.00 | 38 | 1016.6 |
| 20260502023040 | 11 | 360 | 1.6 | 0.0 | 0.00 | 0.00 | 0.00 | 37 | 1016.7 |
| 20260502022539 | 11 | 360 | 1.6 | 0.0 | 0.00 | 0.00 | 0.00 | 36 | 1016.7 |
| 20260502021538 | 12 | 360 | 3.2 | 0.0 | 0.00 | 0.00 | 0.00 | 35 | 1016.7 |
| 20260502021038 | 12 | 360 | 4.8 | 0.0 | 0.00 | 0.00 | 0.00 | 34 | 1016.7 |
| 20260502020538 | 13 | 360 | 4.8 | 0.0 | 0.00 | 0.00 | 0.00 | 33 | 1016.7 |
| 20260502020038 | 13 | 360 | 4.8 | 0.0 | 0.00 | 0.00 | 0.00 | 32 | 1016.6 |
| 20260502015542 | 14 | 360 | 4.8 | 0.0 | 0.00 | 0.00 | 0.00 | 32 | 1016.7 |
| 20260502015041 | 15 | 360 | 4.8 | 0.0 | 0.00 | 0.00 | 0.00 | 30 | 1016.7 |
| 20260502014538 | 15 | 360 | 6.4 | 0.0 | 0.00 | 0.00 | 0.00 | 29 | 1016.8 |
| 20260502014037 | 16 | 360 | 6.4 | 0.0 | 0.00 | 0.00 | 0.00 | 28 | 1016.7 |
| 20260502013536 | 16 | 360 | 6.4 | 0.0 | 0.00 | 0.00 | 0.00 | 27 | 1016.7 |
| 20260502013036 | 17 | 360 | 6.4 | 0.0 | 0.00 | 0.00 | 0.00 | 26 | 1016.9 |
| 20260502012536 | 17 | 360 | 6.4 | 0.0 | 0.00 | 0.00 | 0.00 | 26 | 1016.8 |
| 20260502011536 | 18 | 360 | 8.0 | 0.0 | 0.00 | 0.00 | 0.00 | 25 | 1016.8 |
| 20260502011035 | 18 | 360 | 9.7 | 0.0 | 0.00 | 0.00 | 0.00 | 25 | 1016.9 |
| 20260502010535 | 18 | 360 | 9.7 | 0.0 | 0.00 | 0.00 | 0.00 | 24 | 1016.9 |
| 20260502010034 | 18 | 360 | 9.7 | 0.0 | 0.00 | 0.00 | 0.00 | 24 | 1017.1 |
| 20260502005534 | 18 | 360 | 9.7 | 0.0 | 0.00 | 0.00 | 0.00 | 23 | 1017.1 |
| 20260502005034 | 19 | 360 | 11.3 | 0.0 | 0.00 | 0.00 | 0.00 | 23 | 1017.1 |
| 20260502004535 | 19 | 360 | 11.3 | 0.0 | 0.00 | 0.00 | 0.00 | 23 | 1017.1 |
| 20260502004036 | 19 | 360 | 11.3 | 0.0 | 0.00 | 0.00 | 0.00 | 23 | 1017.1 |
| 20260502003534 | 19 | 360 | 11.3 | 0.0 | 0.00 | 0.00 | 0.00 | 23 | 1017.2 |
| 20260502003033 | 19 | 360 | 11.3 | 0.0 | 0.00 | 0.00 | 0.00 | 22 | 1017.3 |
| 20260502002533 | 19 | 360 | 11.3 | 0.0 | 0.00 | 0.00 | 0.00 | 22 | 1017.3 |
| 20260502001532 | 20 | 360 | 8.0 | 0.0 | 0.00 | 0.00 | 0.00 | 22 | 1017.4 |
| 20260502001032 | 20 | 360 | 6.4 | 0.0 | 0.00 | 0.00 | 0.00 | 21 | 1017.5 |
| 20260502000530 | 20 | 360 | 8.0 | 0.0 | 0.00 | 0.00 | 0.00 | 22 | 1017.5 |
| 20260502000031 | 19 | 360 | 11.3 | 0.0 | 0.00 | 0.00 | 0.00 | 22 | 1017.5 |
| 20260501235530 | 19 | 360 | 11.3 | 0.0 | 0.00 | 0.00 | 0.00 | 22 | 1017.5 |
| 20260501235030 | 20 | 360 | 9.7 | 0.0 | 0.00 | 0.00 | 0.00 | 21 | 1017.5 |
| 20260501234531 | 20 | 360 | 8.0 | 0.0 | 0.00 | 0.00 | 0.00 | 22 | 1017.5 |
| 20260501234032 | 20 | 360 | 8.0 | 0.0 | 0.00 | 0.00 | 0.00 | 21 | 1017.6 |
| 20260501233530 | 19 | 360 | 11.3 | 0.0 | 0.00 | 0.00 | 0.00 | 21 | 1017.7 |
| 20260501233028 | 19 | 360 | 11.3 | 0.0 | 0.00 | 0.00 | 0.00 | 22 | 1017.8 |
| 20260501232528 | 20 | 360 | 8.0 | 0.0 | 0.00 | 0.00 | 0.00 | 22 | 1017.8 |
| 20260501231528 | 20 | 360 | 8.0 | 0.0 | 0.00 | 0.00 | 0.00 | 21 | 1017.9 |
| 20260501231028 | 20 | 360 | 8.0 | 0.0 | 0.00 | 0.00 | 0.00 | 21 | 1017.9 |
| 20260501230530 | 20 | 360 | 8.0 | 0.0 | 0.00 | 0.00 | 0.00 | 21 | 1017.9 |
| 20260501230027 | 20 | 360 | 6.4 | 0.0 | 0.00 | 0.00 | 0.00 | 21 | 1018.1 |
| 20260501225526 | 20 | 360 | 8.0 | 0.0 | 0.00 | 0.00 | 0.00 | 21 | 1018.2 |
| 20260501225028 | 19 | 360 | 9.7 | 0.0 | 0.00 | 0.00 | 0.00 | 21 | 1018.2 |
| 20260501224530 | 19 | 360 | 8.0 | 0.0 | 0.00 | 0.00 | 0.00 | 21 | 1018.2 |
| 20260501224026 | 20 | 360 | 8.0 | 0.0 | 0.00 | 0.00 | 0.00 | 22 | 1018.1 |
| 20260501223525 | 20 | 360 | 6.4 | 0.0 | 0.00 | 0.00 | 0.00 | 22 | 1018.2 |
| 20260501223025 | 19 | 360 | 4.8 | 0.0 | 0.00 | 0.00 | 0.00 | 22 | 1018.4 |
| 20260501222526 | 19 | 360 | 4.8 | 0.0 | 0.00 | 0.00 | 0.00 | 22 | 1018.4 |
| 20260501221525 | 19 | 360 | 6.4 | 0.0 | 0.00 | 0.00 | 0.00 | 22 | 1018.6 |
| 20260501221023 | 19 | 360 | 9.7 | 0.0 | 0.00 | 0.00 | 0.00 | 21 | 1018.7 |
| 20260501220521 | 19 | 360 | 9.7 | 0.0 | 0.00 | 0.00 | 0.00 | 21 | 1018.7 |
| 20260501220021 | 19 | 360 | 8.0 | 0.0 | 0.00 | 0.00 | 0.00 | 22 | 1018.8 |
| 20260501215520 | 19 | 360 | 6.4 | 0.0 | 0.00 | 0.00 | 0.00 | 23 | 1018.8 |
| 20260501215018 | 19 | 360 | 6.4 | 0.0 | 0.00 | 0.00 | 0.00 | 22 | 1018.8 |
| 20260501214518 | 19 | 360 | 8.0 | 0.0 | 0.00 | 0.00 | 0.00 | 23 | 1018.9 |
| 20260501214017 | 18 | 360 | 8.0 | 0.0 | 0.00 | 0.00 | 0.00 | 23 | 1019.0 |
| 20260501213516 | 18 | 360 | 9.7 | 0.0 | 0.00 | 0.00 | 0.00 | 23 | 1019.0 |
| 20260501213015 | 18 | 360 | 9.7 | 0.0 | 0.00 | 0.00 | 0.00 | 22 | 1019.1 |
| 20260501212516 | 18 | 360 | 8.0 | 0.0 | 0.00 | 0.00 | 0.00 | 23 | 1019.2 |
| 20260501211515 | 18 | 360 | 8.0 | 0.0 | 0.00 | 0.00 | 0.00 | 23 | 1019.4 |
| 20260501211014 | 18 | 360 | 6.4 | 0.0 | 0.00 | 0.00 | 0.00 | 23 | 1019.3 |
| 20260501210513 | 18 | 360 | 4.8 | 0.0 | 0.00 | 0.00 | 0.00 | 24 | 1019.5 |
| 20260501210013 | 18 | 360 | 4.8 | 0.0 | 0.00 | 0.00 | 0.00 | 24 | 1019.5 |
| 20260501205512 | 18 | 360 | 8.0 | 0.0 | 0.00 | 0.00 | 0.00 | 25 | 1019.5 |
| 20260501205012 | 18 | 360 | 8.0 | 0.0 | 0.00 | 0.00 | 0.00 | 24 | 1019.5 |
| 20260501204511 | 18 | 360 | 8.0 | 0.0 | 0.00 | 0.00 | 0.00 | 24 | 1019.5 |
| 20260501204010 | 18 | 360 | 8.0 | 0.0 | 0.00 | 0.00 | 0.00 | 24 | 1019.5 |
| 20260501203509 | 18 | 360 | 8.0 | 0.0 | 0.00 | 0.00 | 0.00 | 24 | 1019.6 |
| 20260501203009 | 18 | 360 | 8.0 | 0.0 | 0.00 | 0.00 | 0.00 | 24 | 1019.6 |
| 20260501202509 | 18 | 360 | 6.4 | 0.0 | 0.00 | 0.00 | 0.00 | 23 | 1019.6 |
| 20260501201509 | 17 | 360 | 6.4 | 0.0 | 0.00 | 0.00 | 0.00 | 25 | 1019.8 |
| 20260501201010 | 18 | 360 | 8.0 | 0.0 | 0.00 | 0.00 | 0.00 | 25 | 1020.0 |
| 20260501200508 | 17 | 360 | 8.0 | 0.0 | 0.00 | 0.00 | 0.00 | 27 | 1020.0 |
| 20260501200007 | 17 | 360 | 9.7 | 0.0 | 0.00 | 0.00 | 0.00 | 26 | 1020.0 |
| 20260501195506 | 17 | 360 | 8.0 | 0.0 | 0.00 | 0.00 | 0.00 | 25 | 1020.1 |
| 20260501195005 | 17 | 360 | 8.0 | 0.0 | 0.00 | 0.00 | 0.00 | 26 | 1020.1 |
| 20260501194509 | 17 | 360 | 6.4 | 0.0 | 0.00 | 0.00 | 0.00 | 27 | 1020.1 |
| 20260501194005 | 17 | 360 | 4.8 | 0.0 | 0.00 | 0.00 | 0.00 | 26 | 1020.1 |
| 20260501193505 | 17 | 360 | 6.4 | 0.0 | 0.00 | 0.00 | 0.00 | 27 | 1020.0 |
| 20260501193004 | 17 | 360 | 9.7 | 0.0 | 0.00 | 0.00 | 0.00 | 27 | 1020.1 |
| 20260501192504 | 17 | 360 | 9.7 | 0.0 | 0.00 | 0.00 | 0.00 | 27 | 1020.2 |
| 20260501191503 | 16 | 360 | 9.7 | 0.0 | 0.00 | 0.00 | 0.00 | 27 | 1020.2 |
| 20260501191003 | 17 | 360 | 9.7 | 0.0 | 0.00 | 0.00 | 0.00 | 27 | 1020.3 |
| 20260501190502 | 17 | 360 | 9.7 | 0.0 | 0.00 | 0.00 | 0.00 | 29 | 1020.4 |
| 20260501190001 | 17 | 360 | 11.3 | 0.0 | 0.00 | 0.00 | 0.00 | 28 | 1020.5 |
| 20260501185501 | 17 | 360 | 8.0 | 0.0 | 0.00 | 0.00 | 0.00 | 28 | 1020.5 |
| 20260501185100 | 16 | 360 | 6.4 | 0.0 | 0.00 | 0.00 | 0.00 | 28 | 1020.5 |
| 20260501184559 | 16 | 360 | 6.4 | 0.0 | 0.00 | 0.00 | 0.00 | 28 | 1020.6 |
| 20260501184059 | 16 | 360 | 8.0 | 0.0 | 0.00 | 0.00 | 0.00 | 29 | 1020.7 |
| 20260501183559 | 16 | 360 | 9.7 | 0.0 | 0.00 | 0.00 | 0.00 | 28 | 1020.6 |
| 20260501183104 | 16 | 360 | 9.7 | 0.0 | 0.00 | 0.00 | 0.00 | 29 | 1020.7 |
| 20260501182557 | 16 | 360 | 8.0 | 0.0 | 0.00 | 0.00 | 0.00 | 29 | 1020.8 |
| 20260501181558 | 16 | 360 | 9.7 | 0.0 | 0.00 | 0.00 | 0.00 | 28 | 1020.9 |
| 20260501181058 | 16 | 360 | 9.7 | 0.0 | 0.00 | 0.00 | 0.00 | 29 | 1020.9 |